Time,TemperatureF,DewpointF,PressureIn,WindDirection,WindDirectionDegrees,WindSpeedMPH,WindSpeedGustMPH,Humidity,HourlyPrecipIn,Conditions,Clouds,dailyrainin,SolarRadiationWatts/m^2,SoftwareType,DateUTC
2013-05-23 00:02:00,34.0,32.0,-100.00,West,275,0.0,4.0,94,0.01,,,0.26,8.000000,,2013-05-23 04:02:00,
2013-05-23 00:12:00,34.0,32.0,-100.00,West,275,0.0,4.0,94,0.01,,,0.26,8.000000,,2013-05-23 04:12:00,
2013-05-23 00:22:00,34.0,32.0,-100.00,West,275,0.0,4.0,94,0.01,,,0.26,8.000000,,2013-05-23 04:22:00,
2013-05-23 00:33:00,34.0,32.0,-100.00,West,275,0.0,4.0,94,0.01,,,0.26,8.000000,,2013-05-23 04:33:00,
2013-05-23 00:52:00,34.0,32.0,-100.00,SW,217,0.0,2.0,94,0.00,,,0.26,1.000000,,2013-05-23 04:52:00,
2013-05-23 01:02:00,34.0,32.0,-100.00,SW,217,0.0,2.0,94,0.00,,,0.26,1.000000,,2013-05-23 05:02:00,
2013-05-23 01:11:00,34.0,32.0,-100.00,SW,217,0.0,2.0,94,0.00,,,0.26,1.000000,,2013-05-23 05:11:00,
2013-05-23 01:21:00,34.0,32.0,-100.00,SW,217,0.0,2.0,94,0.00,,,0.26,1.000000,,2013-05-23 05:21:00,
2013-05-23 01:32:00,34.0,32.0,-100.00,SW,217,0.0,2.0,94,0.00,,,0.26,1.000000,,2013-05-23 05:32:00,
2013-05-23 01:52:00,33.0,31.0,-100.00,WSW,248,0.0,3.0,94,0.00,,,0.26,0.000000,,2013-05-23 05:52:00,
2013-05-23 02:02:00,33.0,31.0,-100.00,WSW,248,0.0,3.0,94,0.00,,,0.26,0.000000,,2013-05-23 06:02:00,
2013-05-23 02:12:00,33.0,31.0,-100.00,WSW,248,0.0,3.0,94,0.00,,,0.26,0.000000,,2013-05-23 06:12:00,
2013-05-23 02:21:00,33.0,31.0,-100.00,WSW,248,0.0,3.0,94,0.00,,,0.26,0.000000,,2013-05-23 06:21:00,
2013-05-23 02:31:00,33.0,31.0,-100.00,WSW,248,0.0,3.0,94,0.00,,,0.26,0.000000,,2013-05-23 06:31:00,
2013-05-23 02:52:00,33.0,31.0,-100.00,NNE,12,0.0,4.0,94,0.00,,,0.26,0.000000,,2013-05-23 06:52:00,
2013-05-23 03:02:00,33.0,31.0,-100.00,NNE,12,0.0,4.0,94,0.00,,,0.26,0.000000,,2013-05-23 07:02:00,
2013-05-23 03:11:00,33.0,31.0,-100.00,NNE,12,0.0,4.0,94,0.00,,,0.26,0.000000,,2013-05-23 07:11:00,
2013-05-23 03:21:00,33.0,31.0,-100.00,NNE,12,0.0,4.0,94,0.00,,,0.26,0.000000,,2013-05-23 07:21:00,
2013-05-23 03:31:00,33.0,31.0,-100.00,NNE,12,0.0,4.0,94,0.00,,,0.26,0.000000,,2013-05-23 07:31:00,
2013-05-23 04:02:00,32.0,30.0,-100.00,SSE,156,0.0,5.0,94,0.00,,,0.26,0.000000,,2013-05-23 08:02:00,
2013-05-23 04:11:00,32.0,30.0,-100.00,SSE,156,0.0,5.0,94,0.00,,,0.26,0.000000,,2013-05-23 08:11:00,
2013-05-23 04:21:00,32.0,30.0,-100.00,SSE,156,0.0,5.0,94,0.00,,,0.26,0.000000,,2013-05-23 08:21:00,
2013-05-23 04:31:00,32.0,30.0,-100.00,SSE,156,0.0,5.0,94,0.00,,,0.26,0.000000,,2013-05-23 08:31:00,
2013-05-23 04:52:00,32.0,30.0,-100.00,NW,311,3.0,5.0,94,0.00,,,0.26,0.000000,,2013-05-23 08:52:00,
2013-05-23 05:01:00,32.0,30.0,-100.00,NW,311,3.0,5.0,94,0.00,,,0.26,0.000000,,2013-05-23 09:01:00,
2013-05-23 05:11:00,32.0,30.0,-100.00,NW,311,3.0,5.0,94,0.00,,,0.26,0.000000,,2013-05-23 09:11:00,
2013-05-23 05:21:00,32.0,30.0,-100.00,NW,311,3.0,5.0,94,0.00,,,0.26,0.000000,,2013-05-23 09:21:00,
2013-05-23 05:32:00,32.0,30.0,-100.00,NW,311,3.0,5.0,94,0.00,,,0.26,0.000000,,2013-05-23 09:32:00,
2013-05-23 05:53:00,32.0,30.0,-100.00,WNW,293,3.0,7.0,94,0.00,,,0.26,0.000000,,2013-05-23 09:53:00,
2013-05-23 06:02:00,32.0,30.0,-100.00,WNW,293,3.0,7.0,94,0.00,,,0.26,0.000000,,2013-05-23 10:02:00,
2013-05-23 06:12:00,32.0,30.0,-100.00,WNW,293,3.0,7.0,94,0.00,,,0.26,0.000000,,2013-05-23 10:12:00,
2013-05-23 06:22:00,32.0,30.0,-100.00,WNW,293,3.0,7.0,94,0.00,,,0.26,0.000000,,2013-05-23 10:22:00,
2013-05-23 06:32:00,32.0,30.0,-100.00,WNW,293,3.0,7.0,94,0.00,,,0.26,0.000000,,2013-05-23 10:32:00,
2013-05-23 06:52:00,33.0,31.0,-100.00,West,281,0.0,4.0,94,0.00,,,0.26,0.000000,,2013-05-23 10:52:00,
2013-05-23 07:02:00,33.0,31.0,-100.00,West,281,0.0,4.0,94,0.00,,,0.26,0.000000,,2013-05-23 11:02:00,
2013-05-23 07:11:00,33.0,31.0,-100.00,West,281,0.0,4.0,94,0.00,,,0.26,0.000000,,2013-05-23 11:11:00,
2013-05-23 07:21:00,33.0,31.0,-100.00,West,281,0.0,4.0,94,0.00,,,0.26,0.000000,,2013-05-23 11:21:00,
2013-05-23 07:32:00,33.0,31.0,-100.00,West,281,0.0,4.0,94,0.00,,,0.26,0.000000,,2013-05-23 11:32:00,
2013-05-23 07:52:00,33.0,31.0,-100.00,SSE,156,2.0,3.0,94,0.01,,,0.27,0.000000,,2013-05-23 11:52:00,
2013-05-23 08:01:00,33.0,31.0,-100.00,SSE,156,2.0,3.0,94,0.01,,,0.27,0.000000,,2013-05-23 12:01:00,
2013-05-23 08:11:00,33.0,31.0,-100.00,SSE,156,2.0,3.0,94,0.01,,,0.27,0.000000,,2013-05-23 12:11:00,
2013-05-23 08:21:00,33.0,31.0,-100.00,SSE,156,2.0,3.0,94,0.01,,,0.27,0.000000,,2013-05-23 12:21:00,
2013-05-23 08:32:00,33.0,31.0,-100.00,SSE,156,2.0,3.0,94,0.01,,,0.27,0.000000,,2013-05-23 12:32:00,
2013-05-23 09:01:00,32.0,30.0,-100.00,South,169,0.0,3.0,94,0.00,,,0.27,1.000000,,2013-05-23 13:01:00,
2013-05-23 09:11:00,32.0,30.0,-100.00,South,169,0.0,3.0,94,0.00,,,0.27,1.000000,,2013-05-23 13:11:00,
2013-05-23 09:21:00,32.0,30.0,-100.00,South,169,0.0,3.0,94,0.00,,,0.27,1.000000,,2013-05-23 13:21:00,
2013-05-23 09:31:00,32.0,30.0,-100.00,South,169,0.0,3.0,94,0.00,,,0.27,1.000000,,2013-05-23 13:31:00,
2013-05-23 09:52:00,33.0,31.0,-100.00,SSE,152,1.0,5.0,94,0.00,,,0.27,12.000000,,2013-05-23 13:52:00,
2013-05-23 10:01:00,33.0,31.0,-100.00,SSE,152,1.0,5.0,94,0.00,,,0.27,12.000000,,2013-05-23 14:01:00,
2013-05-23 10:11:00,33.0,31.0,-100.00,SSE,152,1.0,5.0,94,0.00,,,0.27,12.000000,,2013-05-23 14:11:00,
2013-05-23 10:21:00,33.0,31.0,-100.00,SSE,152,1.0,5.0,94,0.00,,,0.27,12.000000,,2013-05-23 14:21:00,
2013-05-23 10:32:00,33.0,31.0,-100.00,SSE,152,1.0,5.0,94,0.00,,,0.27,12.000000,,2013-05-23 14:32:00,
2013-05-23 10:52:00,35.0,33.0,-100.00,SSE,154,2.0,3.0,94,0.00,,,0.27,75.000000,,2013-05-23 14:52:00,
2013-05-23 11:01:00,35.0,33.0,-100.00,SSE,154,2.0,3.0,94,0.00,,,0.27,75.000000,,2013-05-23 15:01:00,
2013-05-23 11:11:00,35.0,33.0,-100.00,SSE,154,2.0,3.0,94,0.00,,,0.27,75.000000,,2013-05-23 15:11:00,
2013-05-23 11:21:00,35.0,33.0,-100.00,SSE,154,2.0,3.0,94,0.00,,,0.27,75.000000,,2013-05-23 15:21:00,
2013-05-23 11:32:00,35.0,33.0,-100.00,SSE,154,2.0,3.0,94,0.00,,,0.27,75.000000,,2013-05-23 15:32:00,
2013-05-23 11:53:00,37.0,35.0,-100.00,South,171,3.0,5.0,94,0.00,,,0.27,131.000000,,2013-05-23 15:53:00,
2013-05-23 12:03:00,37.0,35.0,-100.00,South,171,3.0,5.0,94,0.00,,,0.27,131.000000,,2013-05-23 16:03:00,
2013-05-23 12:12:00,37.0,35.0,-100.00,South,171,3.0,5.0,94,0.00,,,0.27,131.000000,,2013-05-23 16:12:00,
2013-05-23 12:22:00,37.0,35.0,-100.00,South,171,3.0,5.0,94,0.00,,,0.27,131.000000,,2013-05-23 16:22:00,
2013-05-23 12:33:00,37.0,35.0,-100.00,South,171,3.0,5.0,94,0.00,,,0.27,131.000000,,2013-05-23 16:33:00,
2013-05-23 12:52:00,39.0,37.0,-100.00,SSE,148,3.0,5.0,93,0.00,,,0.24,193.000000,,2013-05-23 16:52:00,
2013-05-23 13:03:00,39.0,37.0,-100.00,SSE,148,3.0,5.0,93,0.00,,,0.24,193.000000,,2013-05-23 17:03:00,
2013-05-23 13:11:00,39.0,37.0,-100.00,SSE,148,3.0,5.0,93,0.00,,,0.24,193.000000,,2013-05-23 17:11:00,
2013-05-23 13:22:00,39.0,37.0,-100.00,SSE,148,3.0,5.0,93,0.00,,,0.24,193.000000,,2013-05-23 17:22:00,
2013-05-23 13:33:00,39.0,37.0,-100.00,SSE,148,3.0,5.0,93,0.00,,,0.24,193.000000,,2013-05-23 17:33:00,
2013-05-23 13:52:00,43.0,39.0,-100.00,SSE,166,1.0,4.0,86,0.00,,,0.20,385.000000,,2013-05-23 17:52:00,
2013-05-23 14:01:00,43.0,39.0,-100.00,SSE,166,1.0,4.0,86,0.00,,,0.20,385.000000,,2013-05-23 18:01:00,
2013-05-23 14:11:00,43.0,39.0,-100.00,SSE,166,1.0,4.0,86,0.00,,,0.20,385.000000,,2013-05-23 18:11:00,
2013-05-23 14:21:00,43.0,39.0,-100.00,SSE,166,1.0,4.0,86,0.00,,,0.20,385.000000,,2013-05-23 18:21:00,
2013-05-23 14:32:00,43.0,39.0,-100.00,SSE,166,1.0,4.0,86,0.00,,,0.20,385.000000,,2013-05-23 18:32:00,
2013-05-23 15:01:00,44.0,39.0,-100.00,SSE,160,3.0,5.0,81,0.00,,,0.16,404.000000,,2013-05-23 19:01:00,
2013-05-23 15:11:00,44.0,39.0,-100.00,SSE,160,3.0,5.0,81,0.00,,,0.16,404.000000,,2013-05-23 19:11:00,
2013-05-23 15:21:00,44.0,39.0,-100.00,SSE,160,3.0,5.0,81,0.00,,,0.16,404.000000,,2013-05-23 19:21:00,
2013-05-23 15:31:00,44.0,39.0,-100.00,SSE,160,3.0,5.0,81,0.00,,,0.16,404.000000,,2013-05-23 19:31:00,
2013-05-23 15:52:00,43.0,38.0,-100.00,South,170,2.0,6.0,82,0.00,,,0.12,342.000000,,2013-05-23 19:52:00,
2013-05-23 16:02:00,43.0,38.0,-100.00,South,170,2.0,6.0,82,0.00,,,0.12,342.000000,,2013-05-23 20:02:00,
2013-05-23 16:11:00,43.0,38.0,-100.00,South,170,2.0,6.0,82,0.00,,,0.12,342.000000,,2013-05-23 20:11:00,
2013-05-23 16:21:00,43.0,38.0,-100.00,South,170,2.0,6.0,82,0.00,,,0.12,342.000000,,2013-05-23 20:21:00,
2013-05-23 16:32:00,43.0,38.0,-100.00,South,170,2.0,6.0,82,0.00,,,0.12,342.000000,,2013-05-23 20:32:00,
2013-05-23 16:52:00,46.0,40.0,-100.00,South,187,2.0,5.0,79,0.00,,,0.11,430.000000,,2013-05-23 20:52:00,
2013-05-23 17:01:00,46.0,40.0,-100.00,South,187,2.0,5.0,79,0.00,,,0.11,430.000000,,2013-05-23 21:01:00,
2013-05-23 17:11:00,46.0,40.0,-100.00,South,187,2.0,5.0,79,0.00,,,0.11,430.000000,,2013-05-23 21:11:00,
2013-05-23 17:21:00,46.0,40.0,-100.00,South,187,2.0,5.0,79,0.00,,,0.11,430.000000,,2013-05-23 21:21:00,
2013-05-23 17:32:00,46.0,40.0,-100.00,South,187,2.0,5.0,79,0.00,,,0.11,430.000000,,2013-05-23 21:32:00,
2013-05-23 17:53:00,49.0,40.0,-100.00,South,180,2.0,5.0,72,0.00,,,0.09,464.000000,,2013-05-23 21:53:00,
2013-05-23 18:02:00,49.0,40.0,-100.00,South,180,2.0,5.0,72,0.00,,,0.09,464.000000,,2013-05-23 22:02:00,
2013-05-23 18:12:00,49.0,40.0,-100.00,South,180,2.0,5.0,72,0.00,,,0.09,464.000000,,2013-05-23 22:12:00,
2013-05-23 18:22:00,49.0,40.0,-100.00,South,180,2.0,5.0,72,0.00,,,0.09,464.000000,,2013-05-23 22:22:00,
2013-05-23 18:33:00,49.0,40.0,-100.00,South,180,2.0,5.0,72,0.00,,,0.09,464.000000,,2013-05-23 22:33:00,
2013-05-23 18:52:00,47.0,41.0,-100.00,South,188,3.0,8.0,78,0.00,,,0.06,513.000000,,2013-05-23 22:52:00,
2013-05-23 19:01:00,47.0,41.0,-100.00,South,188,3.0,8.0,78,0.00,,,0.06,513.000000,,2013-05-23 23:01:00,
2013-05-23 19:11:00,47.0,41.0,-100.00,South,188,3.0,8.0,78,0.00,,,0.06,513.000000,,2013-05-23 23:11:00,
2013-05-23 19:21:00,47.0,41.0,-100.00,South,188,3.0,8.0,78,0.00,,,0.06,513.000000,,2013-05-23 23:21:00,
2013-05-23 19:31:00,47.0,41.0,-100.00,South,188,3.0,8.0,78,0.00,,,0.06,513.000000,,2013-05-23 23:31:00,
2013-05-23 19:52:00,46.0,39.0,-100.00,SSW,196,2.0,7.0,75,0.00,,,0.05,336.000000,,2013-05-23 23:52:00,
2013-05-23 20:01:00,46.0,39.0,-100.00,SSW,196,2.0,7.0,75,0.00,,,0.05,336.000000,,2013-05-24 00:01:00,
2013-05-23 20:12:00,46.0,39.0,-100.00,SSW,196,2.0,7.0,75,0.00,,,0.05,336.000000,,2013-05-24 00:12:00,
2013-05-23 20:21:00,46.0,39.0,-100.00,SSW,196,2.0,7.0,75,0.00,,,0.05,336.000000,,2013-05-24 00:21:00,
2013-05-23 20:31:00,46.0,39.0,-100.00,SSW,196,2.0,7.0,75,0.00,,,0.05,336.000000,,2013-05-24 00:31:00,
2013-05-23 21:01:00,45.0,38.0,-100.00,SSE,167,3.0,6.0,75,0.00,,,0.04,277.000000,,2013-05-24 01:01:00,
2013-05-23 21:12:00,45.0,38.0,-100.00,SSE,167,3.0,6.0,75,0.00,,,0.04,277.000000,,2013-05-24 01:12:00,
2013-05-23 21:22:00,45.0,38.0,-100.00,SSE,167,3.0,6.0,75,0.00,,,0.04,277.000000,,2013-05-24 01:22:00,
2013-05-23 21:32:00,45.0,38.0,-100.00,SSE,167,3.0,6.0,75,0.00,,,0.04,277.000000,,2013-05-24 01:32:00,
2013-05-23 21:52:00,43.0,37.0,-100.00,South,180,2.0,6.0,80,0.00,,,0.03,269.000000,,2013-05-24 01:52:00,
2013-05-23 22:01:00,43.0,37.0,-100.00,South,180,2.0,6.0,80,0.00,,,0.03,269.000000,,2013-05-24 02:01:00,
2013-05-23 22:11:00,43.0,37.0,-100.00,South,180,2.0,6.0,80,0.00,,,0.03,269.000000,,2013-05-24 02:11:00,
2013-05-23 22:21:00,43.0,37.0,-100.00,South,180,2.0,6.0,80,0.00,,,0.03,269.000000,,2013-05-24 02:21:00,
2013-05-23 22:32:00,43.0,37.0,-100.00,South,180,2.0,6.0,80,0.00,,,0.03,269.000000,,2013-05-24 02:32:00,
2013-05-23 23:02:00,39.0,36.0,-100.00,South,172,4.0,11.0,88,0.00,,,-99.99,160.000000,,2013-05-24 03:02:00,
2013-05-23 23:11:00,39.0,36.0,-100.00,South,172,4.0,11.0,88,0.00,,,-99.99,160.000000,,2013-05-24 03:11:00,
2013-05-23 23:21:00,39.0,36.0,-100.00,South,172,4.0,11.0,88,0.00,,,-99.99,160.000000,,2013-05-24 03:21:00,
2013-05-23 23:33:00,39.0,36.0,-100.00,South,172,4.0,11.0,88,0.00,,,-99.99,160.000000,,2013-05-24 03:33:00,
2013-05-23 23:53:00,38.0,36.0,-100.00,South,181,3.0,7.0,92,0.00,,,0.01,26.000000,,2013-05-24 03:53:00,